QPF
0.00 0.00 0.00 0.00 0.00 0.00 0.00 0.00 0.00 0.00 0.00 0.00 0.00 0.00 0.00 0.00 0.01 0.01 0.01 0.01 0.01 0.01 0.01 0.01 0.01 0.01 0.01 0.01 0.01 0.01 0.01 0.01 0.01 0.01 0.01 0.00 0.00 0.00 0.00 0.00 0.00 0.00 0.01
0.00 0.00 0.00 0.00 0.00 0.00 0.00 0.00 0.00 0.00 0.00 0.00 0.00 0.00 0.00 0.00 0.00 0.00 0.00 0.00 0.00 0.01 0.01 0.01 0.01 0.01 0.02 0.02 0.01 0.02 0.02 0.02 0.03 0.03 0.03 0.01 0.00 0.00 0.00 0.00 0.00 0.00 0.01
0.00 0.00 0.00 0.00 0.00 0.00 0.00 0.00 0.00 0.00 0.00 0.00 0.00 0.00 0.00 0.00 0.00 0.00 0.00 0.00 0.00 0.01 0.01 0.01 0.02 0.02 0.02 0.02 0.01 0.02 0.03 0.03 0.03 0.04 0.05 0.03 0.01 0.00 0.00 0.00 0.00 0.00 0.01
0.00 0.00 0.00 0.00 0.00 0.00 0.00 0.00 0.00 0.00 0.00 0.00 0.00 0.00 0.00 0.00 0.00 0.00 0.00 0.00 0.00 0.01 0.01 0.01 0.01 0.01 0.01 0.01 0.01 0.02 0.03 0.03 0.03 0.02 0.03 0.03 0.02 0.02 0.01 0.00 0.00 0.01 0.01
0.00 0.00 0.00 0.00 0.00 0.00 0.00 0.00 0.00 0.00 0.00 0.00 0.00 0.00 0.00 0.00 0.00 0.00 0.00 0.00 0.00 0.00 0.00 0.00 0.01 0.01 0.01 0.01 0.01 0.02 0.02 0.03 0.03 0.02 0.02 0.03 0.02 0.02 0.03 0.02 0.00 0.01 0.01
0.00 0.00 0.00 0.00 0.00 0.00 0.00 0.00 0.00 0.00 0.00 0.00 0.00 0.00 0.00 0.00 0.00 0.00 0.00 0.00 0.00 0.00 0.00 0.00 0.00 0.01 0.01 0.01 0.01 0.01 0.02 0.02 0.03 0.03 0.02 0.02 0.02 0.01 0.03 0.03 0.02 0.01 0.02
0.00 0.00 0.00 0.00 0.00 0.00 0.00 0.00 0.00 0.00 0.00 0.00 0.00 0.00 0.00 0.00 0.00 0.00 0.00 0.00 0.00 0.00 0.00 0.00 0.00 0.00 0.00 0.00 0.01 0.01 0.01 0.01 0.02 0.02 0.02 0.02 0.02 0.03 0.03 0.04 0.03 0.02 0.02
0.00 0.00 0.00 0.00 0.00 0.00 0.00 0.00 0.00 0.00 0.00 0.00 0.00 0.00 0.00 0.00 0.00 0.00 0.00 0.00 0.00 0.00 0.00 0.00 0.00 0.00 0.00 0.00 0.00 0.00 0.00 0.01 0.01 0.01 0.02 0.02 0.02 0.03 0.03 0.04 0.04 0.04 0.04
0.00 0.00 0.00 0.00 0.00 0.00 0.00 0.00 0.00 0.00 0.00 0.00 0.00 0.00 0.00 0.00 0.00 0.00 0.00 0.00 0.00 0.00 0.00 0.00 0.00 0.00 0.00 0.00 0.00 0.00 0.00 0.00 0.00 0.01 0.01 0.01 0.01 0.02 0.02 0.03 0.04 0.06 0.06
0.00 0.00 0.00 0.00 0.00 0.00 0.00 0.00 0.00 0.00 0.00 0.00 0.00 0.00 0.00 0.00 0.00 0.00 0.00 0.00 0.00 0.00 0.00 0.00 0.00 0.00 0.00 0.00 0.00 0.00 0.00 0.00 0.00 0.00 0.00 0.01 0.01 0.01 0.01 0.02 0.03 0.05 0.07
0.00 0.00 0.00 0.00 0.00 0.00 0.00 0.00 0.00 0.00 0.00 0.00 0.00 0.00 0.00 0.00 0.00 0.00 0.00 0.00 0.00 0.00 0.00 0.00 0.00 0.00 0.00 0.00 0.00 0.00 0.00 0.00 0.00 0.00 0.00 0.00 0.00 0.00 0.00 0.01 0.01 0.03 0.06
0.00 0.00 0.00 0.00 0.00 0.00 0.00 0.00 0.00 0.00 0.00 0.00 0.00 0.00 0.00 0.00 0.00 0.00 0.00 0.00 0.00 0.00 0.00 0.00 0.00 0.00 0.00 0.00 0.00 0.00 0.00 0.00 0.00 0.00 0.00 0.00 0.00 0.00 0.00 0.00 0.01 0.03 0.05
0.00 0.00 0.00 0.00 0.00 0.00 0.00 0.00 0.00 0.00 0.00 0.00 0.00 0.00 0.00 0.00 0.00 0.00 0.00 0.00 0.00 0.00 0.00 0.00 0.00 0.00 0.00 0.00 0.00 0.00 0.00 0.00 0.00 0.00 0.00 0.00 0.00 0.00 0.00 0.01 0.01 0.03 0.04
0.00 0.00 0.00 0.00 0.00 0.00 0.00 0.00 0.00 0.00 0.00 0.00 0.00 0.00 0.00 0.00 0.00 0.00 0.00 0.00 0.00 0.00 0.00 0.00 0.00 0.00 0.00 0.00 0.00 0.00 0.00 0.00 0.00 0.00 0.00 0.00 0.00 0.00 0.00 0.01 0.01 0.01 0.02
0.00 0.00 0.00 0.00 0.00 0.00 0.00 0.00 0.00 0.00 0.00 0.00 0.00 0.00 0.00 0.00 0.00 0.00 0.00 0.00 0.00 0.00 0.00 0.00 0.00 0.00 0.00 0.00 0.00 0.00 0.00 0.00 0.00 0.00 0.00 0.00 0.00 0.00 0.00 0.00 0.00 0.01 0.01
0.00 0.00 0.00 0.00 0.00 0.00 0.00 0.00 0.00 0.00 0.00 0.00 0.00 0.00 0.00 0.00 0.00 0.00 0.00 0.00 0.00 0.00 0.00 0.00 0.00 0.00 0.00 0.00 0.00 0.00 0.00 0.00 0.00 0.00 0.00 0.00 0.00 0.00 0.00 0.00 0.00 0.00 0.00
0.00 0.00 0.00 0.00 0.00 0.00 0.00 0.00 0.00 0.00 0.00 0.00 0.00 0.00 0.00 0.00 0.00 0.00 0.00 0.00 0.00 0.00 0.00 0.00 0.00 0.00 0.00 0.00 0.00 0.00 0.00 0.00 0.00 0.00 0.00 0.00 0.00 0.00 0.00 0.00 0.00 0.00 0.00
0.00 0.00 0.00 0.00 0.00 0.00 0.00 0.00 0.00 0.00 0.00 0.00 0.00 0.00 0.00 0.00 0.00 0.00 0.00 0.00 0.00 0.00 0.00 0.00 0.00 0.00 0.00 0.00 0.00 0.00 0.00 0.00 0.00 0.00 0.00 0.00 0.00 0.00 0.00 0.00 0.00 0.00 0.00
0.00 0.00 0.00 0.00 0.00 0.00 0.00 0.00 0.00 0.00 0.00 0.00 0.00 0.00 0.00 0.00 0.00 0.00 0.00 0.00 0.00 0.00 0.00 0.00 0.00 0.00 0.00 0.00 0.00 0.00 0.00 0.00 0.00 0.00 0.00 0.00 0.00 0.00 0.00 0.00 0.00 0.00 0.00
0.00 0.00 0.00 0.00 0.00 0.00 0.00 0.00 0.00 0.00 0.00 0.00 0.00 0.00 0.00 0.00 0.00 0.00 0.00 0.00 0.00 0.00 0.00 0.00 0.00 0.00 0.00 0.00 0.00 0.00 0.00 0.00 0.00 0.00 0.00 0.00 0.00 0.00 0.00 0.00 0.00 0.00 0.00
0.00 0.00 0.00 0.00 0.00 0.00 0.00 0.00 0.00 0.00 0.00 0.00 0.00 0.00 0.00 0.00 0.00 0.00 0.00 0.00 0.00 0.00 0.00 0.00 0.00 0.00 0.00 0.00 0.00 0.00 0.00 0.00 0.00 0.00 0.00 0.00 0.00 0.00 0.00 0.00 0.00 0.00 0.00
0.00 0.00 0.00 0.00 0.00 0.00 0.00 0.00 0.00 0.00 0.00 0.00 0.00 0.00 0.00 0.00 0.00 0.00 0.00 0.00 0.00 0.00 0.00 0.00 0.00 0.00 0.00 0.00 0.00 0.00 0.00 0.00 0.00 0.00 0.00 0.00 0.00 0.00 0.00 0.00 0.00 0.00 0.00
0.00 0.00 0.00 0.00 0.00 0.00 0.00 0.00 0.00 0.00 0.00 0.00 0.00 0.00 0.00 0.00 0.00 0.00 0.00 0.00 0.00 0.00 0.00 0.00 0.00 0.00 0.00 0.00 0.00 0.00 0.00 0.00 0.00 0.00 0.00 0.00 0.00 0.00 0.00 0.00 0.00 0.00 0.00
0.01 0.01 0.01 0.00 0.00 0.00 0.00 0.00 0.00 0.00 0.00 0.00 0.00 0.00 0.00 0.00 0.00 0.00 0.00 0.00 0.00 0.00 0.00 0.00 0.00 0.00 0.00 0.00 0.00 0.00 0.00 0.00 0.00 0.00 0.00 0.00 0.00 0.00 0.00 0.00 0.00 0.00 0.00
0.02 0.02 0.02 0.01 0.01 0.01 0.01 0.00 0.00 0.00 0.00 0.00 0.00 0.00 0.00 0.00 0.00 0.00 0.00 0.00 0.00 0.00 0.00 0.00 0.00 0.00 0.00 0.00 0.00 0.00 0.00 0.00 0.00 0.00 0.00 0.00 0.00 0.00 0.00 0.00 0.00 0.00 0.00
0.02 0.02 0.02 0.01 0.01 0.01 0.01 0.01 0.00 0.00 0.00 0.00 0.00 0.00 0.00 0.00 0.00 0.00 0.00 0.00 0.00 0.00 0.00 0.00 0.00 0.00 0.00 0.00 0.00 0.00 0.00 0.00 0.00 0.00 0.00 0.00 0.00 0.00 0.00 0.00 0.00 0.00 0.00
MSLP
1016.59 1016.61 1016.64 1016.65 1016.65 1016.64 1016.64 1016.68 1016.75 1016.87 1017.04 1017.24 1017.46 1017.67 1017.86 1018.02 1018.13 1018.22 1018.29 1018.36 1018.44 1018.55 1018.69 1018.87 1019.06 1019.28 1019.49 1019.69 1019.88 1020.04 1020.18 1020.29 1020.38 1020.44 1020.48 1020.51 1020.52 1020.52 1020.51 1020.50 1020.49 1020.48 1020.48
1016.45 1016.58 1016.68 1016.76 1016.80 1016.82 1016.83 1016.86 1016.93 1017.05 1017.21 1017.41 1017.61 1017.80 1017.96 1018.06 1018.11 1018.12 1018.11 1018.10 1018.11 1018.15 1018.24 1018.37 1018.52 1018.69 1018.86 1019.03 1019.18 1019.32 1019.44 1019.56 1019.67 1019.78 1019.88 1019.97 1020.04 1020.10 1020.14 1020.16 1020.17 1020.17 1020.16
1016.19 1016.42 1016.64 1016.81 1016.93 1017.00 1017.05 1017.11 1017.19 1017.32 1017.50 1017.69 1017.89 1018.05 1018.17 1018.22 1018.21 1018.14 1018.05 1017.96 1017.89 1017.85 1017.86 1017.91 1017.99 1018.09 1018.20 1018.30 1018.41 1018.51 1018.62 1018.75 1018.89 1019.05 1019.22 1019.38 1019.52 1019.65 1019.74 1019.80 1019.83 1019.85 1019.85
1015.83 1016.19 1016.53 1016.81 1017.03 1017.18 1017.30 1017.40 1017.52 1017.67 1017.85 1018.04 1018.22 1018.37 1018.45 1018.46 1018.39 1018.26 1018.11 1017.94 1017.79 1017.68 1017.61 1017.57 1017.57 1017.58 1017.60 1017.63 1017.68 1017.74 1017.84 1017.97 1018.14 1018.34 1018.57 1018.80 1019.01 1019.19 1019.33 1019.43 1019.49 1019.52 1019.54
1015.45 1015.92 1016.39 1016.80 1017.13 1017.38 1017.57 1017.73 1017.87 1018.04 1018.22 1018.40 1018.57 1018.69 1018.74 1018.72 1018.62 1018.46 1018.26 1018.05 1017.84 1017.66 1017.52 1017.40 1017.31 1017.24 1017.18 1017.13 1017.11 1017.13 1017.21 1017.34 1017.53 1017.76 1018.03 1018.30 1018.56 1018.78 1018.95 1019.07 1019.15 1019.20 1019.22
1015.12 1015.71 1016.30 1016.84 1017.28 1017.62 1017.87 1018.07 1018.24 1018.40 1018.57 1018.73 1018.87 1018.97 1019.01 1018.97 1018.86 1018.69 1018.48 1018.26 1018.03 1017.82 1017.62 1017.45 1017.28 1017.13 1016.99 1016.88 1016.81 1016.78 1016.83 1016.95 1017.14 1017.39 1017.67 1017.97 1018.24 1018.47 1018.65 1018.77 1018.85 1018.89 1018.92
1014.93 1015.62 1016.32 1016.96 1017.49 1017.90 1018.20 1018.43 1018.60 1018.74 1018.88 1019.01 1019.12 1019.20 1019.22 1019.19 1019.10 1018.95 1018.77 1018.56 1018.35 1018.14 1017.92 1017.71 1017.50 1017.29 1017.10 1016.93 1016.81 1016.74 1016.76 1016.86 1017.04 1017.28 1017.56 1017.84 1018.09 1018.31 1018.46 1018.57 1018.62 1018.66 1018.68
1014.91 1015.68 1016.46 1017.17 1017.77 1018.23 1018.56 1018.79 1018.94 1019.06 1019.15 1019.24 1019.32 1019.37 1019.40 1019.38 1019.32 1019.23 1019.10 1018.94 1018.77 1018.58 1018.38 1018.16 1017.93 1017.70 1017.47 1017.26 1017.11 1017.02 1017.01 1017.09 1017.24 1017.46 1017.70 1017.94 1018.16 1018.33 1018.44 1018.50 1018.53 1018.54 1018.54
1015.06 1015.88 1016.71 1017.47 1018.10 1018.58 1018.92 1019.14 1019.26 1019.34 1019.39 1019.44 1019.48 1019.52 1019.55 1019.56 1019.55 1019.51 1019.45 1019.37 1019.25 1019.11 1018.94 1018.74 1018.52 1018.28 1018.04 1017.82 1017.65 1017.54 1017.52 1017.58 1017.71 1017.89 1018.09 1018.29 1018.44 1018.55 1018.61 1018.62 1018.60 1018.58 1018.56
1015.33 1016.17 1017.02 1017.79 1018.43 1018.92 1019.25 1019.45 1019.55 1019.59 1019.61 1019.62 1019.64 1019.67 1019.71 1019.75 1019.78 1019.81 1019.82 1019.80 1019.75 1019.67 1019.54 1019.37 1019.17 1018.95 1018.72 1018.51 1018.35 1018.25 1018.23 1018.28 1018.38 1018.53 1018.69 1018.83 1018.92 1018.97 1018.97 1018.93 1018.86 1018.80 1018.76
1015.61 1016.45 1017.29 1018.06 1018.69 1019.17 1019.50 1019.69 1019.78 1019.81 1019.81 1019.80 1019.81 1019.84 1019.88 1019.95 1020.03 1020.10 1020.17 1020.21 1020.22 1020.18 1020.10 1019.98 1019.81 1019.62 1019.42 1019.25 1019.11 1019.04 1019.03 1019.08 1019.18 1019.31 1019.43 1019.52 1019.57 1019.56 1019.50 1019.42 1019.32 1019.23 1019.16
1015.82 1016.63 1017.45 1018.19 1018.82 1019.30 1019.63 1019.84 1019.94 1019.98 1019.98 1019.98 1019.99 1020.02 1020.08 1020.17 1020.27 1020.38 1020.48 1020.57 1020.62 1020.63 1020.59 1020.50 1020.38 1020.23 1020.08 1019.96 1019.87 1019.83 1019.85 1019.93 1020.03 1020.15 1020.24 1020.30 1020.31 1020.26 1020.16 1020.04 1019.91 1019.80 1019.72
1015.86 1016.64 1017.42 1018.14 1018.76 1019.25 1019.61 1019.85 1019.99 1020.07 1020.11 1020.13 1020.16 1020.21 1020.28 1020.38 1020.50 1020.63 1020.76 1020.87 1020.95 1020.99 1020.99 1020.95 1020.87 1020.77 1020.68 1020.61 1020.57 1020.59 1020.65 1020.75 1020.87 1020.98 1021.06 1021.10 1021.08 1021.00 1020.88 1020.73 1020.58 1020.46 1020.37
1015.69 1016.43 1017.19 1017.90 1018.52 1019.04 1019.44 1019.74 1019.95 1020.08 1020.17 1020.24 1020.30 1020.38 1020.46 1020.58 1020.71 1020.85 1020.99 1021.12 1021.22 1021.29 1021.33 1021.33 1021.30 1021.25 1021.22 1021.20 1021.22 1021.29 1021.39 1021.52 1021.65 1021.76 1021.84 1021.86 1021.81 1021.71 1021.57 1021.40 1021.24 1021.11 1021.01
1015.33 1016.05 1016.78 1017.49 1018.13 1018.69 1019.15 1019.52 1019.80 1020.01 1020.17 1020.29 1020.39 1020.49 1020.60 1020.73 1020.87 1021.02 1021.18 1021.33 1021.46 1021.57 1021.64 1021.68 1021.70 1021.71 1021.72 1021.76 1021.82 1021.93 1022.06 1022.20 1022.34 1022.45 1022.51 1022.51 1022.45 1022.33 1022.17 1021.99 1021.82 1021.68 1021.58
1014.85 1015.55 1016.28 1016.99 1017.66 1018.27 1018.80 1019.24 1019.59 1019.87 1020.09 1020.26 1020.41 1020.54 1020.68 1020.83 1021.00 1021.18 1021.36 1021.54 1021.71 1021.85 1021.97 1022.05 1022.11 1022.17 1022.22 1022.29 1022.38 1022.50 1022.64 1022.78 1022.91 1023.01 1023.05 1023.03 1022.94 1022.80 1022.62 1022.43 1022.25 1022.10 1021.99
1014.35 1015.05 1015.78 1016.51 1017.21 1017.86 1018.44 1018.93 1019.35 1019.69 1019.96 1020.18 1020.37 1020.54 1020.71 1020.90 1021.10 1021.32 1021.54 1021.77 1021.99 1022.18 1022.34 1022.46 1022.56 1022.64 1022.72 1022.80 1022.89 1023.00 1023.12 1023.24 1023.34 1023.41 1023.42 1023.37 1023.26 1023.10 1022.91 1022.71 1022.52 1022.36 1022.25
1013.94 1014.65 1015.39 1016.13 1016.85 1017.53 1018.14 1018.67 1019.12 1019.50 1019.81 1020.06 1020.29 1020.50 1020.71 1020.94 1021.20 1021.47 1021.75 1022.04 1022.31 1022.55 1022.75 1022.91 1023.03 1023.11 1023.18 1023.25 1023.32 1023.39 1023.48 1023.55 1023.61 1023.63 1023.61 1023.54 1023.41 1023.24 1023.04 1022.83 1022.63 1022.48 1022.36
1013.70 1014.42 1015.16 1015.91 1016.64 1017.32 1017.94 1018.48 1018.94 1019.33 1019.66 1019.94 1020.20 1020.45 1020.71 1021.00 1021.31 1021.64 1021.99 1022.34 1022.66 1022.94 1023.17 1023.34 1023.46 1023.53 1023.57 1023.60 1023.62 1023.64 1023.67 1023.69 1023.71 1023.69 1023.64 1023.55 1023.41 1023.24 1023.04 1022.84 1022.65 1022.50 1022.38
1013.65 1014.37 1015.11 1015.85 1016.56 1017.22 1017.83 1018.36 1018.82 1019.21 1019.54 1019.84 1020.13 1020.42 1020.73 1021.07 1021.44 1021.84 1022.24 1022.64 1023.00 1023.30 1023.54 1023.70 1023.80 1023.83 1023.82 1023.79 1023.75 1023.72 1023.69 1023.66 1023.64 1023.60 1023.54 1023.44 1023.31 1023.16 1022.98 1022.80 1022.63 1022.49 1022.39
1013.75 1014.45 1015.17 1015.88 1016.56 1017.20 1017.77 1018.28 1018.72 1019.10 1019.44 1019.76 1020.07 1020.40 1020.76 1021.15 1021.58 1022.02 1022.47 1022.89 1023.27 1023.57 1023.79 1023.93 1023.97 1023.96 1023.89 1023.80 1023.70 1023.61 1023.54 1023.49 1023.44 1023.40 1023.35 1023.27 1023.18 1023.05 1022.92 1022.77 1022.64 1022.52 1022.43
1013.92 1014.59 1015.27 1015.94 1016.57 1017.16 1017.70 1018.18 1018.60 1018.98 1019.33 1019.66 1020.01 1020.38 1020.78 1021.22 1021.68 1022.16 1022.62 1023.05 1023.41 1023.69 1023.87 1023.95 1023.95 1023.87 1023.75 1023.61 1023.47 1023.35 1023.26 1023.20 1023.17 1023.15 1023.13 1023.10 1023.05 1022.98 1022.89 1022.79 1022.70 1022.61 1022.54
1014.05 1014.67 1015.29 1015.90 1016.49 1017.03 1017.54 1017.99 1018.40 1018.78 1019.15 1019.52 1019.90 1020.31 1020.75 1021.22 1021.71 1022.19 1022.65 1023.05 1023.38 1023.61 1023.74 1023.77 1023.71 1023.58 1023.42 1023.26 1023.10 1022.98 1022.90 1022.87 1022.87 1022.89 1022.93 1022.95 1022.96 1022.95 1022.92 1022.87 1022.82 1022.76 1022.71
1014.07 1014.62 1015.17 1015.72 1016.25 1016.75 1017.22 1017.66 1018.07 1018.47 1018.86 1019.27 1019.69 1020.14 1020.61 1021.10 1021.59 1022.07 1022.50 1022.86 1023.14 1023.31 1023.39 1023.36 1023.27 1023.12 1022.95 1022.78 1022.65 1022.56 1022.52 1022.54 1022.60 1022.68 1022.78 1022.86 1022.93 1022.97 1022.99 1022.98 1022.96 1022.93 1022.90
1013.93 1014.40 1014.87 1015.35 1015.82 1016.28 1016.73 1017.16 1017.58 1018.00 1018.43 1018.87 1019.33 1019.81 1020.31 1020.81 1021.29 1021.74 1022.13 1022.45 1022.67 1022.80 1022.84 1022.79 1022.68 1022.53 1022.38 1022.26 1022.17 1022.14 1022.18 1022.26 1022.38 1022.53 1022.68 1022.82 1022.93 1023.01 1023.06 1023.07 1023.07 1023.05 1023.02
1013.66 1014.05 1014.44 1014.85 1015.26 1015.68 1016.10 1016.52 1016.95 1017.39 1017.84 1018.32 1018.81 1019.31 1019.82 1020.32 1020.78 1021.20 1021.56 1021.83 1022.02 1022.12 1022.13 1022.08 1021.99 1021.89 1021.80 1021.74 1021.73 1021.78 1021.88 1022.04 1022.22 1022.42 1022.61 1022.77 1022.90 1023.00 1023.05 1023.08 1023.07 1023.05 1023.02
Thickness
5639 5645 5649 5654 5659 5662 5665 5668 5670 5671 5673 5673 5673 5673 5673 5674 5675 5675 5675 5674 5674 5673 5672 5671 5669 5667 5665 5663 5661 5657 5654 5652 5647 5642 5642 5641 5639 5637 5634 5630 5626 5623 5620
5630 5636 5640 5644 5649 5652 5655 5658 5660 5662 5664 5665 5666 5666 5667 5668 5668 5669 5669 5668 5668 5668 5667 5667 5666 5664 5662 5659 5657 5653 5650 5647 5642 5636 5633 5633 5634 5631 5630 5626 5622 5619 5614
5625 5628 5631 5635 5638 5642 5645 5649 5650 5652 5654 5656 5657 5658 5659 5659 5660 5660 5660 5660 5661 5661 5661 5660 5660 5659 5657 5655 5652 5649 5645 5642 5637 5632 5627 5625 5627 5626 5624 5619 5616 5612 5607
5621 5622 5624 5626 5629 5631 5634 5638 5640 5642 5644 5646 5648 5648 5648 5649 5649 5649 5650 5651 5652 5652 5653 5653 5652 5651 5650 5649 5647 5644 5640 5636 5632 5626 5621 5619 5618 5614 5616 5613 5608 5604 5600
5616 5617 5617 5618 5619 5621 5624 5627 5629 5631 5633 5635 5636 5637 5637 5638 5639 5640 5641 5642 5643 5644 5644 5644 5644 5643 5642 5641 5639 5637 5633 5630 5627 5622 5616 5611 5607 5603 5601 5605 5602 5595 5592
5610 5609 5608 5608 5609 5610 5613 5615 5618 5619 5621 5623 5624 5626 5627 5628 5629 5630 5631 5632 5633 5634 5635 5635 5635 5634 5634 5633 5631 5629 5626 5623 5620 5617 5612 5606 5601 5597 5592 5594 5594 5589 5585
5603 5602 5600 5599 5599 5600 5602 5604 5606 5607 5608 5611 5612 5614 5615 5617 5618 5619 5620 5621 5622 5623 5624 5624 5625 5624 5624 5623 5622 5620 5618 5616 5613 5610 5606 5602 5598 5593 5588 5586 5585 5581 5576
5596 5596 5595 5592 5591 5591 5591 5593 5594 5595 5597 5599 5600 5602 5604 5606 5607 5608 5609 5610 5611 5612 5612 5613 5613 5613 5613 5612 5612 5610 5608 5606 5603 5600 5597 5593 5589 5584 5580 5576 5573 5571 5566
5587 5586 5584 5582 5581 5581 5581 5582 5584 5584 5586 5587 5589 5591 5593 5594 5596 5597 5598 5599 5600 5601 5601 5601 5601 5601 5601 5600 5600 5598 5596 5594 5591 5587 5584 5581 5577 5573 5569 5564 5560 5557 5556
5577 5575 5572 5571 5569 5569 5570 5571 5572 5573 5574 5576 5579 5580 5581 5583 5584 5586 5586 5587 5588 5588 5589 5589 5588 5588 5587 5587 5586 5584 5582 5580 5577 5574 5571 5567 5563 5559 5555 5551 5547 5542 5540
5567 5564 5561 5559 5558 5557 5558 5559 5560 5562 5563 5565 5567 5568 5570 5572 5573 5574 5574 5575 5575 5576 5576 5575 5575 5574 5573 5572 5571 5570 5568 5565 5562 5559 5556 5552 5548 5544 5540 5536 5532 5528 5524
5557 5554 5550 5548 5547 5547 5548 5549 5550 5552 5553 5555 5556 5557 5558 5560 5561 5561 5562 5562 5563 5563 5563 5562 5562 5560 5559 5558 5557 5555 5553 5550 5547 5544 5541 5537 5534 5530 5526 5522 5518 5514 5510
5546 5543 5540 5539 5539 5539 5539 5540 5541 5542 5543 5545 5545 5546 5547 5548 5549 5549 5550 5550 5550 5550 5550 5550 5548 5547 5545 5544 5543 5541 5538 5536 5532 5529 5526 5522 5519 5515 5512 5508 5504 5500 5498
5540 5535 5533 5531 5531 5530 5531 5532 5532 5533 5534 5535 5535 5536 5537 5537 5538 5538 5538 5538 5538 5537 5537 5537 5536 5534 5532 5531 5529 5527 5525 5522 5518 5515 5512 5509 5506 5502 5499 5495 5492 5489 5486
5534 5532 5529 5525 5523 5523 5523 5523 5524 5525 5525 5525 5526 5526 5527 5527 5527 5527 5527 5526 5526 5525 5525 5525 5524 5523 5522 5519 5516 5515 5512 5509 5505 5502 5499 5496 5494 5492 5489 5485 5480 5478 5475
5534 5530 5526 5521 5519 5518 5517 5516 5516 5517 5517 5517 5517 5517 5517 5517 5518 5517 5516 5515 5514 5514 5513 5513 5512 5512 5510 5508 5505 5502 5499 5495 5492 5488 5485 5483 5481 5478 5477 5474 5471 5469 5465
5535 5529 5525 5521 5517 5514 5512 5510 5510 5510 5509 5509 5509 5508 5509 5509 5508 5507 5506 5505 5503 5502 5501 5500 5500 5499 5498 5497 5494 5491 5486 5483 5479 5476 5473 5472 5469 5466 5463 5461 5459 5456 5454
5533 5529 5522 5517 5512 5509 5506 5504 5503 5502 5502 5501 5501 5501 5501 5500 5499 5498 5496 5495 5493 5492 5490 5489 5488 5487 5487 5486 5483 5479 5475 5472 5469 5466 5463 5461 5458 5457 5454 5451 5447 5444 5442
5531 5526 5519 5513 5507 5503 5501 5498 5496 5495 5495 5495 5495 5494 5494 5492 5491 5489 5487 5486 5484 5482 5480 5479 5477 5476 5475 5476 5473 5470 5465 5462 5459 5457 5455 5452 5450 5450 5446 5442 5437 5434 5431
5522 5517 5511 5506 5502 5498 5496 5493 5491 5490 5489 5489 5488 5487 5486 5485 5484 5481 5479 5477 5475 5473 5472 5470 5468 5467 5466 5467 5465 5462 5458 5454 5451 5449 5446 5444 5443 5442 5439 5433 5429 5425 5422
5513 5509 5505 5502 5498 5494 5491 5488 5486 5486 5485 5484 5482 5481 5479 5478 5476 5473 5471 5469 5467 5465 5463 5462 5460 5459 5459 5458 5458 5455 5451 5447 5444 5441 5438 5435 5435 5433 5430 5426 5421 5418 5414
5504 5501 5498 5495 5492 5490 5487 5485 5482 5482 5480 5478 5476 5474 5473 5471 5469 5466 5464 5462 5460 5458 5456 5454 5453 5452 5451 5451 5450 5449 5446 5441 5437 5434 5430 5428 5427 5425 5421 5417 5414 5411 5405
5497 5495 5493 5489 5486 5485 5484 5481 5479 5477 5475 5473 5471 5469 5467 5465 5463 5460 5457 5455 5453 5451 5450 5448 5447 5446 5445 5443 5443 5441 5438 5435 5430 5426 5424 5422 5419 5415 5411 5408 5405 5400 5394
5491 5490 5487 5485 5483 5481 5480 5479 5476 5473 5471 5468 5466 5463 5461 5458 5456 5454 5453 5450 5448 5446 5446 5444 5442 5440 5438 5436 5435 5432 5429 5427 5424 5419 5416 5413 5409 5405 5402 5398 5393 5389 5384
5488 5486 5485 5484 5483 5480 5477 5475 5473 5470 5467 5464 5461 5459 5457 5454 5451 5450 5448 5447 5445 5443 5442 5440 5438 5435 5432 5432 5430 5426 5423 5419 5416 5413 5407 5403 5399 5395 5391 5387 5383 5379 5375
5485 5483 5482 5482 5480 5478 5476 5473 5471 5468 5464 5461 5458 5455 5453 5450 5447 5445 5443 5443 5442 5442 5440 5438 5434 5431 5429 5427 5425 5421 5418 5415 5411 5406 5399 5394 5389 5385 5381 5377 5373 5369 5364